Temperature
29 29 29 29 29 29 29 30 30 31 31 31 31 30 28 27 26 25 25 24 23 23 23 22 22 22 22 21 21 21 20 20 20 20 20 19 19 18 18 17 17 17 16 16
27 28 28 29 29 29 29 30 30 30 31 31 29 28 27 26 26 25 24 24 23 22 22 22 22 22 21 21 21 21 20 20 20 20 19 19 18 18 17 17 17 16 16 15
27 28 27 27 29 29 29 30 30 30 30 29 28 27 26 25 25 25 24 24 23 22 22 22 22 22 22 21 21 20 20 20 20 19 19 19 18 18 17 17 16 16 16 16
27 26 25 28 29 29 29 29 29 29 29 28 28 26 25 24 24 24 23 23 22 22 22 22 22 21 21 21 21 20 20 20 20 19 19 18 18 17 17 17 16 16 16 15
26 26 26 27 27 28 28 28 28 28 28 27 26 26 26 24 23 23 22 22 22 22 22 22 22 21 21 20 20 20 20 20 19 19 19 18 18 17 17 16 16 16 15 15
25 25 25 27 27 26 27 26 26 26 26 26 26 27 27 23 22 22 21 21 21 21 21 21 21 21 20 20 20 19 19 19 19 19 18 18 18 17 17 16 16 15 15 15
24 25 26 26 25 26 26 26 24 24 24 24 25 25 23 21 21 20 20 20 20 20 20 21 20 20 20 20 19 19 19 19 18 18 18 18 17 17 16 16 15 15 15 14
24 24 25 24 25 25 24 22 22 23 23 23 22 21 21 20 20 19 19 19 20 20 20 20 20 20 20 20 19 19 18 18 18 17 17 17 17 16 16 15 15 15 14 14
24 24 22 22 22 21 20 21 21 21 21 21 21 20 20 19 19 19 19 19 19 19 19 19 19 19 19 19 19 18 18 18 17 17 16 16 16 16 15 15 15 15 14 14
21 22 21 20 20 19 19 20 20 20 20 20 20 19 19 19 19 18 18 18 18 18 18 19 19 18 19 18 18 18 18 17 17 17 16 16 16 15 15 15 15 14 14 14
21 20 20 19 19 19 19 19 19 19 19 19 19 19 18 18 18 18 18 18 18 18 18 18 18 18 18 18 18 17 17 17 17 16 16 16 15 15 15 15 15 14 14 14
21 20 20 19 18 18 18 18 18 18 18 18 18 18 18 17 17 17 17 17 17 17 17 17 18 17 17 17 17 17 16 16 16 16 16 15 15 15 15 14 14 14 14 13
18 18 18 17 17 17 17 17 17 17 17 18 17 17 17 17 17 17 17 17 17 17 17 17 17 17 17 17 17 16 16 16 16 15 15 15 15 15 14 14 14 14 14 13
16 16 16 17 17 17 17 17 17 17 17 17 17 16 16 16 16 16 16 16 16 16 16 16 16 16 16 16 16 16 15 15 15 15 15 15 14 14 14 14 14 13 13 13
16 16 16 16 16 16 16 16 16 16 16 16 16 16 16 16 15 15 16 16 16 16 16 16 16 16 16 16 15 15 15 15 15 15 14 14 14 14 14 13 13 13 13 13
15 15 15 15 15 16 16 16 16 15 15 15 15 15 15 15 15 15 15 15 16 16 15 15 15 15 15 15 15 15 14 14 14 14 14 14 14 14 13 13 13 13 13 12
15 15 15 15 15 15 15 15 15 15 15 15 15 15 15 15 15 15 15 15 15 15 15 15 15 15 15 14 14 14 14 14 14 14 14 14 13 13 13 13 13 13 12 12
15 15 15 15 15 15 15 14 14 14 14 14 14 14 14 14 14 14 14 14 14 14 14 14 14 14 14 14 14 14 14 13 13 13 13 13 13 13 13 13 13 12 12 12
14 14 14 14 14 14 14 14 14 14 14 14 14 14 13 14 14 14 14 14 14 14 14 14 14 14 13 14 13 14 13 13 13 13 13 13 12 12 12 12 12 12 12 12
14 14 13 13 13 13 13 13 13 13 13 13 13 13 13 13 13 14 14 14 14 14 14 14 13 13 13 13 13 13 13 13 13 13 12 12 12 12 12 12 12 12 12 11
13 13 13 13 13 13 13 13 13 13 13 13 13 13 13 13 13 13 14 14 14 13 13 13 13 13 13 13 13 13 13 13 13 13 12 12 12 12 12 12 12 12 11 11
13 13 13 12 12 12 12 12 12 13 13 13 13 13 13 13 13 13 13 13 13 13 13 13 13 13 13 12 12 12 13 12 12 12 12 12 12 12 12 12 12 11 11 11
12 12 12 12 12 12 12 12 12 12 12 12 12 12 13 13 13 13 13 13 13 13 13 13 13 13 13 12 12 12 12 12 12 12 12 12 12 12 12 12 11 11 11 11
12 12 12 12 12 12 12 12 12 12 12 12 12 12 12 13 13 13 13 13 13 13 13 13 13 12 12 12 12 12 12 12 12 12 12 12 12 12 11 11 11 11 11 11
11 11 11 11 11 12 12 12 12 12 12 12 12 12 12 12 13 13 13 13 13 12 12 12 12 12 12 12 12 12 12 12 12 12 12 12 12 11 11 11 11 11 11 10
11 11 11 11 11 11 12 12 12 12 12 12 12 12 12 12 12 12 12 12 12 12 12 12 12 11 11 11 12 11 11 11 11 11 12 12 11 11 11 11 11 11 10 10
11 11 11 11 11 11 11 12 12 12 12 12 12 12 12 12 12 12 12 12 12 12 11 11 11 11 11 11 11 11 11 11 11 11 11 11 11 11 11 10 10 10 10 10
Wind_Speed
11 8 10 13 16 17 18 17 15 13 12 8 6 4 4 5 6 7 9 10 11 11 11 11 11 10 10 10 11 11 11 10 9 8 8 7 6 6 5 4 4 4 3 3
12 11 11 13 15 16 17 17 16 14 11 4 2 3 4 5 6 7 9 10 10 11 11 11 11 11 11 10 11 11 11 10 9 9 8 8 7 6 5 5 4 4 3 3
13 12 12 16 16 16 15 15 15 15 10 4 4 4 4 5 6 7 8 9 10 11 11 11 11 11 12 11 11 11 10 10 10 10 9 8 7 7 6 6 5 4 4 3
10 11 16 10 6 10 12 11 10 9 6 5 5 5 4 4 4 5 7 8 9 10 10 11 11 11 11 12 12 11 11 11 10 10 9 8 8 7 6 6 5 4 4 4
10 14 13 8 6 8 10 10 6 8 6 4 4 4 4 3 2 3 4 6 7 9 10 11 11 11 11 11 11 11 11 11 10 10 10 9 8 7 6 6 5 4 4 4
11 13 13 8 5 4 8 10 3 4 5 5 6 7 4 3 2 2 3 4 6 8 9 10 11 11 11 11 10 10 10 10 10 10 9 9 8 8 7 6 5 5 5 4
13 13 8 2 3 5 10 5 0 2 3 4 5 4 1 2 2 3 4 5 6 7 7 8 9 10 10 10 10 9 9 9 9 9 9 9 8 7 7 6 6 5 5 4
12 13 8 2 5 5 1 2 1 1 1 1 0 1 2 2 3 4 4 5 6 6 6 7 8 9 9 8 9 9 10 10 9 9 8 8 8 7 7 6 6 6 5 5
5 4 3 2 1 1 1 1 1 1 1 1 1 2 2 2 3 4 4 4 4 6 6 6 7 8 9 8 8 9 10 10 9 9 8 8 8 8 7 7 6 5 5 5
4 3 2 1 1 1 1 2 2 2 1 2 2 2 2 2 3 3 4 4 4 5 6 6 6 6 7 7 8 9 10 9 9 8 8 8 7 7 7 7 6 6 5 5
6 4 3 2 1 2 1 1 0 1 1 1 2 2 2 2 3 3 3 3 4 4 5 6 6 6 7 7 8 9 9 9 8 8 7 7 6 4 5 4 4 4 5 5
6 5 3 2 2 2 1 0 1 1 1 1 2 2 2 2 2 2 2 3 3 4 4 5 6 6 6 7 8 8 8 8 7 7 7 7 6 5 2 1 4 2 1 2
4 3 2 2 2 1 1 1 1 1 1 1 1 2 2 1 1 1 2 2 3 3 4 4 5 5 6 6 7 8 8 7 6 7 7 7 7 7 6 3 3 3 4 3
3 3 3 3 2 1 1 1 1 1 0 0 1 1 2 1 1 2 2 3 3 3 4 4 4 5 5 6 7 7 7 7 7 6 7 7 7 7 7 7 6 5 5 7
3 4 4 3 3 2 2 1 1 1 1 0 0 1 1 1 1 2 2 3 3 3 3 4 4 4 5 6 6 7 6 5 5 5 6 6 6 6 6 6 6 5 5 5
3 3 4 3 3 2 2 1 1 1 1 0 0 1 1 2 2 2 3 4 4 4 4 4 4 4 5 6 7 6 5 5 5 6 6 6 6 6 6 6 6 5 5 5
4 4 3 3 2 1 1 1 1 1 1 1 1 1 1 2 2 2 3 3 3 3 4 4 4 4 5 6 6 5 5 6 6 6 6 6 6 6 5 6 6 6 5 5
4 4 3 2 2 2 1 2 2 2 2 2 2 1 1 2 2 3 3 3 3 3 3 3 4 4 5 6 5 5 5 6 7 6 6 6 5 5 5 5 6 6 5 6
4 3 2 2 2 2 2 2 2 1 1 2 2 2 2 2 2 2 2 3 3 3 3 3 4 5 5 5 5 4 5 6 6 6 6 6 6 6 6 6 6 6 5 5
4 3 3 2 2 3 3 2 2 1 1 2 2 2 2 2 2 3 3 3 2 2 3 4 5 4 5 5 5 4 5 6 6 6 6 6 6 6 5 5 5 5 5 5
4 3 3 3 3 3 3 2 2 2 1 2 2 2 2 2 2 2 2 2 2 2 3 5 4 4 4 4 5 4 5 5 6 6 6 5 5 5 5 5 5 5 5 5
3 3 3 3 3 3 2 2 2 2 2 2 3 3 3 3 3 3 3 1 1 2 2 3 3 3 4 4 4 4 4 5 5 5 5 5 5 5 5 5 5 5 5 5
2 3 3 3 3 3 2 2 2 3 3 3 3 3 3 2 2 2 2 2 2 2 2 2 3 6 5 4 4 4 4 5 5 5 5 5 4 4 4 4 4 4 4 4
2 2 2 3 3 3 3 2 2 2 3 3 3 3 3 3 2 2 1 3 3 3 2 3 7 6 5 4 3 4 4 4 5 4 4 4 4 3 3 3 3 4 4 4
1 2 2 2 3 3 3 3 3 3 3 3 2 2 2 2 2 1 1 2 3 3 3 5 8 7 5 4 4 4 4 4 4 4 4 4 4 4 4 4 4 4 3 4
1 1 1 2 3 3 2 2 2 2 2 2 2 2 1 1 1 1 1 2 3 3 3 4 5 6 4 4 4 4 4 4 4 4 4 4 4 4 3 4 4 4 3 3
1 2 2 2 2 2 2 2 2 2 2 2 2 2 1 1 1 1 2 2 3 3 2 3 3 4 4 3 3 3 3 3 3 3 3 3 3 2 2 3 3 3 3 3
Wind_Direction
241 234 218 216 214 215 225 235 242 241 244 242 233 221 204 188 179 177 174 173 175 176 170 166 163 162 164 165 164 164 163 163 161 159 156 154 152 149 144 141 133 122 117 111
225 221 224 229 225 222 227 233 240 248 247 256 221 209 198 194 188 185 182 179 176 174 169 167 164 162 161 162 163 162 161 159 157 157 158 157 153 148 143 139 132 130 125 115
222 212 221 228 224 223 227 231 237 241 242 229 226 222 212 203 197 193 188 183 178 174 172 169 167 163 162 161 161 161 159 159 160 160 157 155 151 147 146 145 142 139 135 122
222 209 226 227 213 225 227 230 236 244 246 236 238 233 216 192 194 194 189 183 179 171 166 165 164 163 161 159 160 162 163 162 162 162 157 153 151 149 148 147 147 145 139 131
222 221 224 215 208 216 223 227 234 242 240 229 229 222 203 167 183 188 187 179 176 172 166 160 161 160 158 159 162 166 167 166 165 164 159 156 155 154 153 152 151 153 146 143
222 227 228 213 184 215 222 224 229 247 241 223 214 230 208 121 123 143 153 161 166 165 160 157 158 157 160 162 166 171 171 169 167 164 162 160 157 157 157 157 159 159 147 152
226 227 227 163 175 198 216 212 119 241 236 225 230 269 108 114 123 132 138 149 152 152 151 155 157 158 159 161 168 170 168 166 163 161 160 157 154 156 157 161 158 156 151 158
220 225 218 137 189 210 244 37 19 285 237 227 187 102 122 117 130 137 138 141 144 145 145 151 160 160 156 164 168 165 163 162 158 159 162 156 154 157 159 160 163 166 167 172
222 221 84 86 103 24 349 274 291 271 244 202 171 139 132 137 135 136 138 139 141 143 145 153 161 165 160 159 162 160 158 158 157 159 161 161 164 164 168 176 183 180 182 182
218 196 170 117 360 339 307 283 277 254 215 201 174 153 152 148 139 141 142 143 146 148 151 155 161 164 162 158 162 159 158 159 160 164 168 170 179 180 184 185 189 190 192 192
221 208 203 235 293 329 333 319 252 175 170 173 162 159 153 148 150 154 151 154 158 161 159 158 159 161 158 156 162 161 162 165 168 171 173 176 182 184 193 190 193 200 201 200
222 212 224 211 294 320 315 230 193 165 153 154 163 161 149 146 144 150 158 165 166 164 165 162 159 160 159 162 168 166 170 174 177 179 175 179 175 172 84 120 122 130 19 250
252 253 267 255 275 279 242 246 242 219 195 183 165 150 132 131 146 158 177 184 183 178 178 173 168 166 166 172 175 176 178 179 184 182 182 187 187 185 182 163 140 164 184 187
237 230 233 240 250 255 245 231 149 119 81 76 121 125 122 135 163 185 201 203 199 190 183 178 178 178 173 174 179 181 181 178 188 189 191 192 194 193 191 191 191 195 191 185
240 239 232 230 232 229 218 188 134 106 69 35 125 144 160 188 205 204 205 202 196 191 190 192 188 188 184 180 183 185 187 186 189 192 194 194 195 195 194 199 198 192 183 178
235 217 209 208 217 224 215 204 193 244 269 281 266 257 243 222 213 202 198 195 193 189 193 206 200 193 186 186 183 184 183 173 186 190 190 192 195 198 198 197 197 196 198 190
217 215 211 205 215 244 246 246 243 264 274 270 257 262 246 220 202 195 195 195 192 184 188 192 190 183 182 186 185 183 176 172 186 193 194 194 197 201 201 199 199 200 205 192
236 239 228 219 236 251 251 263 276 277 275 268 247 222 216 219 217 205 194 185 174 167 176 180 171 172 179 185 186 183 178 177 189 197 195 197 198 200 202 203 204 206 201 186
222 226 229 234 245 250 250 255 270 284 272 242 231 218 222 219 207 196 181 177 177 178 175 162 159 180 178 179 180 181 182 181 190 196 196 188 199 203 203 203 206 208 206 195
210 209 221 235 245 252 255 252 257 247 235 221 218 215 226 216 196 186 181 189 194 179 159 160 174 182 175 176 193 187 187 187 191 191 191 194 199 201 203 206 209 208 207 208
207 214 223 231 242 252 257 257 248 239 228 224 216 218 220 213 210 199 203 196 171 162 166 169 182 176 174 171 195 194 192 191 189 187 186 192 196 200 204 208 209 207 207 208
214 222 231 237 238 246 249 248 243 225 212 213 218 223 218 212 206 204 207 219 187 144 179 188 185 152 155 171 195 200 195 189 189 188 187 193 198 202 204 208 212 211 210 206
216 221 227 226 225 228 230 234 231 214 210 218 225 223 229 241 233 210 203 191 183 168 191 188 122 122 149 182 192 197 194 192 194 194 193 194 199 204 206 211 213 210 207 208
217 221 226 228 220 214 225 238 237 223 224 229 226 217 224 230 225 213 192 153 160 166 192 127 129 147 189 200 198 199 196 194 196 200 202 199 197 202 205 205 208 211 210 215
231 235 229 229 227 228 226 232 234 222 217 218 215 207 222 236 243 232 203 177 157 168 167 151 159 178 198 205 200 201 205 203 200 203 200 203 200 194 197 201 209 216 217 216
234 244 240 244 254 254 238 232 233 226 216 210 218 225 225 221 218 207 193 179 175 174 181 168 169 185 199 201 200 205 207 194 191 207 208 203 205 200 196 200 207 215 214 212
215 215 219 233 238 246 249 243 242 238 228 214 217 225 219 203 189 184 189 188 176 174 179 183 184 187 190 190 186 187 188 191 190 190 191 199 207 206 199 203 210 210 213 210
Height
1475 1472 1473 1477 1480 1482 1483 1481 1485 1482 1480 1478 1481 1485 1490 1493 1495 1498 1500 1503 1505 1508 1511 1513 1516 1519 1523 1526 1529 1532 1534 1537 1539 1540 1542 1543 1544 1545 1545 1546 1546 1546 1546 1546
1480 1475 1476 1478 1476 1477 1479 1478 1478 1478 1478 1476 1482 1486 1489 1492 1494 1496 1498 1501 1503 1506 1508 1511 1514 1517 1520 1523 1526 1529 1532 1534 1537 1538 1540 1541 1542 1544 1544 1545 1545 1546 1546 1546
1480 1475 1479 1482 1473 1474 1475 1474 1475 1478 1477 1479 1482 1486 1488 1490 1492 1494 1497 1499 1502 1504 1506 1509 1512 1515 1518 1520 1524 1527 1530 1532 1534 1536 1538 1539 1541 1542 1543 1544 1544 1545 1545 1545
1477 1482 1494 1472 1466 1468 1471 1472 1472 1474 1476 1479 1482 1485 1488 1489 1491 1493 1495 1498 1500 1502 1505 1507 1510 1513 1516 1518 1521 1525 1527 1530 1532 1534 1536 1537 1539 1540 1541 1543 1543 1544 1544 1544
1477 1480 1477 1471 1469 1470 1473 1474 1474 1475 1476 1480 1482 1483 1485 1488 1490 1492 1494 1496 1498 1501 1503 1505 1508 1511 1514 1516 1519 1522 1525 1527 1529 1532 1533 1535 1536 1538 1540 1541 1542 1543 1543 1544
1477 1481 1481 1469 1467 1471 1473 1477 1476 1477 1477 1480 1481 1480 1481 1487 1488 1490 1492 1495 1497 1499 1501 1504 1506 1509 1512 1514 1517 1520 1523 1525 1526 1528 1531 1532 1534 1536 1538 1539 1540 1542 1542 1543
1476 1476 1468 1467 1470 1472 1479 1476 1477 1478 1479 1480 1480 1481 1484 1486 1488 1489 1491 1493 1495 1497 1499 1502 1504 1507 1509 1512 1515 1518 1520 1522 1524 1526 1528 1530 1532 1534 1535 1537 1538 1540 1540 1541
1472 1475 1473 1470 1470 1472 1474 1477 1478 1479 1480 1481 1482 1483 1484 1485 1487 1488 1490 1492 1494 1495 1497 1500 1502 1505 1507 1509 1512 1515 1517 1520 1521 1524 1526 1528 1530 1532 1534 1535 1536 1537 1538 1539
1467 1470 1472 1473 1474 1476 1477 1478 1478 1479 1480 1481 1482 1483 1484 1485 1486 1488 1489 1491 1492 1494 1496 1498 1500 1503 1505 1507 1510 1512 1514 1516 1519 1521 1524 1525 1527 1529 1531 1533 1535 1536 1537 1538
1470 1470 1473 1475 1476 1476 1477 1477 1478 1479 1480 1480 1481 1482 1483 1484 1485 1487 1488 1490 1492 1493 1495 1497 1499 1501 1503 1505 1507 1510 1512 1514 1516 1519 1521 1523 1525 1527 1529 1530 1532 1533 1534 1535
1469 1472 1473 1475 1475 1476 1476 1477 1477 1478 1479 1480 1480 1481 1482 1483 1484 1486 1487 1488 1490 1492 1493 1495 1497 1499 1501 1502 1505 1507 1509 1511 1514 1516 1518 1520 1522 1523 1525 1527 1528 1530 1531 1532
1466 1470 1471 1474 1475 1475 1475 1476 1477 1477 1478 1479 1480 1480 1481 1482 1483 1484 1485 1487 1488 1490 1491 1493 1495 1496 1498 1499 1502 1504 1506 1508 1511 1513 1515 1517 1519 1520 1521 1523 1524 1525 1527 1528
1470 1471 1472 1473 1474 1474 1475 1475 1475 1476 1477 1477 1478 1479 1480 1480 1481 1483 1484 1486 1487 1488 1490 1491 1492 1494 1495 1497 1499 1501 1503 1505 1507 1510 1511 1514 1515 1517 1518 1520 1521 1522 1523 1524
1470 1471 1471 1472 1473 1473 1474 1474 1474 1474 1475 1476 1476 1477 1478 1479 1480 1481 1482 1484 1485 1486 1487 1489 1490 1491 1493 1494 1496 1498 1500 1502 1504 1506 1508 1510 1512 1513 1515 1516 1517 1518 1519 1520
1469 1470 1470 1471 1472 1472 1473 1473 1473 1473 1474 1474 1475 1476 1476 1477 1478 1479 1480 1481 1483 1484 1484 1486 1487 1489 1490 1491 1493 1495 1497 1499 1501 1504 1505 1507 1509 1510 1512 1513 1515 1515 1516 1517
1468 1468 1469 1469 1470 1471 1472 1472 1472 1472 1472 1473 1473 1474 1475 1475 1476 1477 1478 1479 1480 1480 1482 1483 1485 1486 1487 1488 1490 1492 1493 1496 1498 1501 1503 1504 1505 1507 1509 1510 1511 1512 1513 1514
1466 1466 1467 1468 1469 1470 1470 1471 1471 1471 1471 1471 1472 1472 1472 1473 1473 1474 1475 1477 1477 1478 1479 1480 1481 1483 1483 1485 1487 1489 1490 1492 1495 1498 1500 1501 1502 1504 1505 1506 1507 1508 1510 1510
1464 1465 1466 1467 1468 1468 1469 1470 1470 1470 1470 1470 1470 1470 1470 1471 1471 1472 1473 1474 1475 1476 1477 1477 1478 1479 1481 1482 1484 1486 1487 1489 1492 1495 1496 1498 1498 1500 1501 1502 1503 1505 1506 1506
1463 1463 1465 1466 1467 1467 1468 1468 1468 1468 1468 1468 1469 1469 1469 1470 1470 1470 1471 1472 1473 1474 1474 1475 1476 1477 1479 1480 1481 1483 1485 1486 1489 1491 1493 1494 1495 1497 1498 1499 1500 1501 1502 1502
1461 1462 1464 1464 1466 1466 1466 1466 1466 1466 1467 1467 1468 1468 1468 1468 1469 1469 1470 1471 1472 1472 1473 1473 1474 1475 1477 1478 1479 1481 1482 1484 1487 1489 1490 1491 1492 1493 1494 1495 1496 1497 1497 1498
1460 1461 1462 1463 1463 1464 1464 1464 1464 1464 1465 1466 1466 1466 1467 1467 1468 1468 1468 1469 1470 1470 1471 1471 1472 1473 1474 1476 1477 1479 1481 1483 1484 1486 1487 1488 1489 1490 1491 1492 1493 1493 1494 1494
1459 1460 1460 1461 1461 1462 1462 1462 1462 1462 1463 1464 1465 1465 1465 1466 1466 1466 1467 1468 1468 1468 1469 1470 1471 1471 1472 1473 1476 1477 1479 1480 1482 1483 1485 1486 1486 1487 1488 1489 1490 1490 1490 1491
1457 1458 1459 1459 1460 1460 1460 1460 1460 1461 1461 1462 1463 1463 1464 1464 1465 1465 1466 1466 1467 1467 1467 1468 1469 1469 1470 1472 1474 1475 1476 1477 1479 1481 1482 1483 1484 1485 1485 1486 1487 1487 1487 1488
1456 1457 1457 1458 1458 1459 1459 1459 1459 1459 1460 1461 1461 1462 1463 1463 1464 1464 1464 1464 1464 1465 1466 1466 1466 1467 1469 1470 1472 1473 1475 1476 1477 1478 1480 1481 1481 1482 1483 1483 1484 1484 1485 1485
1455 1455 1456 1456 1457 1457 1458 1458 1458 1458 1459 1460 1460 1461 1461 1462 1462 1462 1462 1462 1463 1463 1464 1465 1465 1466 1467 1469 1470 1471 1473 1474 1475 1476 1477 1478 1479 1480 1480 1481 1481 1482 1482 1482
1454 1455 1455 1455 1456 1456 1456 1457 1457 1457 1458 1458 1459 1459 1459 1460 1460 1461 1461 1461 1461 1462 1463 1464 1464 1465 1466 1468 1468 1470 1471 1472 1473 1474 1475 1476 1477 1478 1478 1479 1479 1480 1480 1480
1454 1454 1454 1454 1455 1455 1455 1455 1455 1456 1456 1456 1457 1457 1458 1459 1459 1460 1460 1460 1461 1461 1462 1463 1464 1464 1465 1466 1467 1468 1470 1470 1472 1472 1473 1474 1475 1476 1476 1477 1477 1477 1477 1477